Time,TemperatureF,DewpointF,PressureIn,WindDirection,WindDirectionDegrees,WindSpeedMPH,WindSpeedGustMPH,Humidity,HourlyPrecipIn,Conditions,Clouds,dailyrainin,SolarRadiationWatts/m^2,SoftwareType,DateUTC
2013-05-25 00:02:00,52.0,43.0,-100.00,SSE,149,3.0,8.0,73,0.00,,,0.00,0.000000,,2013-05-25 08:02:00,
2013-05-25 00:11:00,52.0,43.0,-100.00,SSE,149,3.0,8.0,73,0.00,,,0.00,0.000000,,2013-05-25 08:11:00,
2013-05-25 00:22:00,52.0,43.0,-100.00,SSE,149,3.0,8.0,73,0.00,,,0.00,0.000000,,2013-05-25 08:22:00,
2013-05-25 00:42:00,48.0,42.0,-100.00,SSE,151,1.0,3.0,78,0.00,,,0.00,0.000000,,2013-05-25 08:42:00,
2013-05-25 00:52:00,48.0,42.0,-100.00,SSE,151,1.0,3.0,78,0.00,,,0.00,0.000000,,2013-05-25 08:52:00,
2013-05-25 01:01:00,48.0,42.0,-100.00,SSE,151,1.0,3.0,78,0.00,,,0.00,0.000000,,2013-05-25 09:01:00,
2013-05-25 01:11:00,48.0,42.0,-100.00,SSE,151,1.0,3.0,78,0.00,,,0.00,0.000000,,2013-05-25 09:11:00,
2013-05-25 01:21:00,48.0,42.0,-100.00,SSE,151,1.0,3.0,78,0.00,,,0.00,0.000000,,2013-05-25 09:21:00,
2013-05-25 01:43:00,48.0,41.0,-100.00,SSE,150,2.0,4.0,77,0.00,,,0.00,0.000000,,2013-05-25 09:43:00,
2013-05-25 01:53:00,48.0,41.0,-100.00,SSE,150,2.0,4.0,77,0.00,,,0.00,0.000000,,2013-05-25 09:53:00,
2013-05-25 02:02:00,48.0,41.0,-100.00,SSE,150,2.0,4.0,77,0.00,,,0.00,0.000000,,2013-05-25 10:02:00,
2013-05-25 02:12:00,48.0,41.0,-100.00,SSE,150,2.0,4.0,77,0.00,,,0.00,0.000000,,2013-05-25 10:12:00,
2013-05-25 02:22:00,48.0,41.0,-100.00,SSE,150,2.0,4.0,77,0.00,,,0.00,0.000000,,2013-05-25 10:22:00,
2013-05-25 02:42:00,48.0,41.0,-100.00,SSE,148,2.0,4.0,77,0.00,,,0.00,0.000000,,2013-05-25 10:42:00,
2013-05-25 02:52:00,48.0,41.0,-100.00,SSE,148,2.0,4.0,77,0.00,,,0.00,0.000000,,2013-05-25 10:52:00,
2013-05-25 03:02:00,48.0,41.0,-100.00,SSE,148,2.0,4.0,77,0.00,,,0.00,0.000000,,2013-05-25 11:02:00,
2013-05-25 03:12:00,48.0,41.0,-100.00,SSE,148,2.0,4.0,77,0.00,,,0.00,0.000000,,2013-05-25 11:12:00,
2013-05-25 03:21:00,48.0,41.0,-100.00,SSE,148,2.0,4.0,77,0.00,,,0.00,0.000000,,2013-05-25 11:21:00,
2013-05-25 03:42:00,46.0,41.0,-100.00,SSE,147,1.0,3.0,82,0.00,,,0.00,0.000000,,2013-05-25 11:42:00,
2013-05-25 03:52:00,46.0,41.0,-100.00,SSE,147,1.0,3.0,82,0.00,,,0.00,0.000000,,2013-05-25 11:52:00,
2013-05-25 04:01:00,46.0,41.0,-100.00,SSE,147,1.0,3.0,82,0.00,,,0.00,0.000000,,2013-05-25 12:01:00,
2013-05-25 04:12:00,46.0,41.0,-100.00,SSE,147,1.0,3.0,82,0.00,,,0.00,0.000000,,2013-05-25 12:12:00,
2013-05-25 04:21:00,46.0,41.0,-100.00,SSE,147,1.0,3.0,82,0.00,,,0.00,0.000000,,2013-05-25 12:21:00,
2013-05-25 04:42:00,45.0,40.0,-100.00,SSE,150,1.0,3.0,84,0.00,,,0.00,0.000000,,2013-05-25 12:42:00,
2013-05-25 04:52:00,45.0,40.0,-100.00,SSE,150,1.0,3.0,84,0.00,,,0.00,0.000000,,2013-05-25 12:52:00,
2013-05-25 05:02:00,45.0,40.0,-100.00,SSE,150,1.0,3.0,84,0.00,,,0.00,0.000000,,2013-05-25 13:02:00,
2013-05-25 05:11:00,45.0,40.0,-100.00,SSE,150,1.0,3.0,84,0.00,,,0.00,0.000000,,2013-05-25 13:11:00,
2013-05-25 05:21:00,45.0,40.0,-100.00,SSE,150,1.0,3.0,84,0.00,,,0.00,0.000000,,2013-05-25 13:21:00,
2013-05-25 05:42:00,45.0,41.0,-100.00,SSE,152,1.0,3.0,88,0.00,,,0.00,10.000000,,2013-05-25 13:42:00,
2013-05-25 05:52:00,45.0,41.0,-100.00,SSE,152,1.0,3.0,88,0.00,,,0.00,10.000000,,2013-05-25 13:52:00,
2013-05-25 06:02:00,45.0,41.0,-100.00,SSE,152,1.0,3.0,88,0.00,,,0.00,10.000000,,2013-05-25 14:02:00,
2013-05-25 06:11:00,45.0,41.0,-100.00,SSE,152,1.0,3.0,88,0.00,,,0.00,10.000000,,2013-05-25 14:11:00,
2013-05-25 06:22:00,45.0,41.0,-100.00,SSE,152,1.0,3.0,88,0.00,,,0.00,10.000000,,2013-05-25 14:22:00,
2013-05-25 06:42:00,43.0,40.0,-100.00,SSE,154,0.0,2.0,89,0.00,,,0.00,42.000000,,2013-05-25 14:42:00,
2013-05-25 06:52:00,43.0,40.0,-100.00,SSE,154,0.0,2.0,89,0.00,,,0.00,42.000000,,2013-05-25 14:52:00,
2013-05-25 07:01:00,43.0,40.0,-100.00,SSE,154,0.0,2.0,89,0.00,,,0.00,42.000000,,2013-05-25 15:01:00,
2013-05-25 07:11:00,43.0,40.0,-100.00,SSE,154,0.0,2.0,89,0.00,,,0.00,42.000000,,2013-05-25 15:11:00,
2013-05-25 07:22:00,43.0,40.0,-100.00,SSE,154,0.0,2.0,89,0.00,,,0.00,42.000000,,2013-05-25 15:22:00,
2013-05-25 07:43:00,45.0,39.0,-100.00,SSE,150,1.0,3.0,80,0.00,,,0.00,90.000000,,2013-05-25 15:43:00,
2013-05-25 07:53:00,45.0,39.0,-100.00,SSE,150,1.0,3.0,80,0.00,,,0.00,90.000000,,2013-05-25 15:53:00,
2013-05-25 08:03:00,45.0,39.0,-100.00,SSE,150,1.0,3.0,80,0.00,,,0.00,90.000000,,2013-05-25 16:03:00,
2013-05-25 08:12:00,45.0,39.0,-100.00,SSE,150,1.0,3.0,80,0.00,,,0.00,90.000000,,2013-05-25 16:12:00,
2013-05-25 08:22:00,45.0,39.0,-100.00,SSE,150,1.0,3.0,80,0.00,,,0.00,90.000000,,2013-05-25 16:22:00,
2013-05-25 08:42:00,48.0,40.0,-100.00,SSE,155,2.0,4.0,73,0.00,,,0.00,170.000000,,2013-05-25 16:42:00,
2013-05-25 08:52:00,48.0,40.0,-100.00,SSE,155,2.0,4.0,73,0.00,,,0.00,170.000000,,2013-05-25 16:52:00,
2013-05-25 09:02:00,48.0,40.0,-100.00,SSE,155,2.0,4.0,73,0.00,,,0.00,170.000000,,2013-05-25 17:02:00,
2013-05-25 09:11:00,48.0,40.0,-100.00,SSE,155,2.0,4.0,73,0.00,,,0.00,170.000000,,2013-05-25 17:11:00,
2013-05-25 09:22:00,48.0,40.0,-100.00,SSE,155,2.0,4.0,73,0.00,,,0.00,170.000000,,2013-05-25 17:22:00,
2013-05-25 09:42:00,54.0,43.0,-100.00,SW,218,1.0,4.0,66,0.00,,,0.00,279.000000,,2013-05-25 17:42:00,
2013-05-25 09:52:00,54.0,43.0,-100.00,SW,218,1.0,4.0,66,0.00,,,0.00,279.000000,,2013-05-25 17:52:00,
2013-05-25 10:01:00,54.0,43.0,-100.00,SW,218,1.0,4.0,66,0.00,,,0.00,279.000000,,2013-05-25 18:01:00,
2013-05-25 10:11:00,54.0,43.0,-100.00,SW,218,1.0,4.0,66,0.00,,,0.00,279.000000,,2013-05-25 18:11:00,
2013-05-25 10:21:00,54.0,43.0,-100.00,SW,218,1.0,4.0,66,0.00,,,0.00,279.000000,,2013-05-25 18:21:00,
2013-05-25 10:42:00,54.0,40.0,-100.00,WNW,291,2.0,4.0,61,0.00,,,0.00,312.000000,,2013-05-25 18:42:00,
2013-05-25 10:52:00,54.0,40.0,-100.00,WNW,291,2.0,4.0,61,0.00,,,0.00,312.000000,,2013-05-25 18:52:00,
2013-05-25 11:01:00,54.0,40.0,-100.00,WNW,291,2.0,4.0,61,0.00,,,0.00,312.000000,,2013-05-25 19:01:00,
2013-05-25 11:11:00,54.0,40.0,-100.00,WNW,291,2.0,4.0,61,0.00,,,0.00,312.000000,,2013-05-25 19:11:00,
2013-05-25 11:21:00,54.0,40.0,-100.00,WNW,291,2.0,4.0,61,0.00,,,0.00,312.000000,,2013-05-25 19:21:00,
2013-05-25 11:42:00,57.0,42.0,-100.00,WNW,287,3.0,6.0,57,0.00,,,0.00,541.000000,,2013-05-25 19:42:00,
2013-05-25 11:52:00,57.0,42.0,-100.00,WNW,287,3.0,6.0,57,0.00,,,0.00,541.000000,,2013-05-25 19:52:00,
2013-05-25 12:02:00,57.0,42.0,-100.00,WNW,287,3.0,6.0,57,0.00,,,0.00,541.000000,,2013-05-25 20:02:00,
2013-05-25 12:11:00,57.0,42.0,-100.00,WNW,287,3.0,6.0,57,0.00,,,0.00,541.000000,,2013-05-25 20:11:00,
2013-05-25 12:21:00,57.0,42.0,-100.00,WNW,287,3.0,6.0,57,0.00,,,0.00,541.000000,,2013-05-25 20:21:00,
2013-05-25 12:42:00,57.0,40.0,-100.00,WNW,290,3.0,6.0,52,0.00,,,0.00,554.000000,,2013-05-25 20:42:00,
2013-05-25 12:52:00,57.0,40.0,-100.00,WNW,290,3.0,6.0,52,0.00,,,0.00,554.000000,,2013-05-25 20:52:00,
2013-05-25 13:02:00,57.0,40.0,-100.00,WNW,290,3.0,6.0,52,0.00,,,0.00,554.000000,,2013-05-25 21:02:00,
2013-05-25 13:11:00,57.0,40.0,-100.00,WNW,290,3.0,6.0,52,0.00,,,0.00,554.000000,,2013-05-25 21:11:00,
2013-05-25 13:21:00,57.0,40.0,-100.00,WNW,290,3.0,6.0,52,0.00,,,0.00,554.000000,,2013-05-25 21:21:00,
2013-05-25 13:43:00,59.0,43.0,-100.00,NNW,341,2.0,5.0,56,0.00,,,0.00,573.000000,,2013-05-25 21:43:00,
2013-05-25 13:53:00,59.0,43.0,-100.00,NNW,341,2.0,5.0,56,0.00,,,0.00,573.000000,,2013-05-25 21:53:00,
2013-05-25 14:03:00,59.0,43.0,-100.00,NNW,341,2.0,5.0,56,0.00,,,0.00,573.000000,,2013-05-25 22:03:00,
2013-05-25 14:12:00,59.0,43.0,-100.00,NNW,341,2.0,5.0,56,0.00,,,0.00,573.000000,,2013-05-25 22:12:00,
2013-05-25 14:22:00,59.0,43.0,-100.00,NNW,341,2.0,5.0,56,0.00,,,0.00,573.000000,,2013-05-25 22:22:00,
2013-05-25 14:42:00,57.0,43.0,-100.00,North,7,4.0,8.0,58,0.00,,,0.00,459.000000,,2013-05-25 22:42:00,
2013-05-25 14:52:00,57.0,43.0,-100.00,North,7,4.0,8.0,58,0.00,,,0.00,459.000000,,2013-05-25 22:52:00,
2013-05-25 15:02:00,57.0,43.0,-100.00,North,7,4.0,8.0,58,0.00,,,0.00,459.000000,,2013-05-25 23:02:00,
2013-05-25 15:12:00,57.0,43.0,-100.00,North,7,4.0,8.0,58,0.00,,,0.00,459.000000,,2013-05-25 23:12:00,
2013-05-25 15:21:00,57.0,43.0,-100.00,North,7,4.0,8.0,58,0.00,,,0.00,459.000000,,2013-05-25 23:21:00,
2013-05-25 15:42:00,57.0,42.0,-100.00,North,5,5.0,10.0,57,0.00,,,0.00,413.000000,,2013-05-25 23:42:00,
2013-05-25 15:52:00,57.0,42.0,-100.00,North,5,5.0,10.0,57,0.00,,,0.00,413.000000,,2013-05-25 23:52:00,
2013-05-25 16:01:00,57.0,42.0,-100.00,North,5,5.0,10.0,57,0.00,,,0.00,413.000000,,2013-05-26 00:01:00,
2013-05-25 16:11:00,57.0,42.0,-100.00,North,5,5.0,10.0,57,0.00,,,0.00,413.000000,,2013-05-26 00:11:00,
2013-05-25 16:21:00,57.0,42.0,-100.00,North,5,5.0,10.0,57,0.00,,,0.00,413.000000,,2013-05-26 00:21:00,
2013-05-25 16:43:00,59.0,41.0,-100.00,North,1,5.0,8.0,52,0.00,,,0.00,372.000000,,2013-05-26 00:43:00,
2013-05-25 16:52:00,59.0,41.0,-100.00,North,1,5.0,8.0,52,0.00,,,0.00,372.000000,,2013-05-26 00:52:00,
2013-05-25 17:01:00,59.0,41.0,-100.00,North,1,5.0,8.0,52,0.00,,,0.00,372.000000,,2013-05-26 01:01:00,
2013-05-25 17:11:00,59.0,41.0,-100.00,North,1,5.0,8.0,52,0.00,,,0.00,372.000000,,2013-05-26 01:11:00,
2013-05-25 17:21:00,59.0,41.0,-100.00,North,1,5.0,8.0,52,0.00,,,0.00,372.000000,,2013-05-26 01:21:00,
2013-05-25 17:42:00,59.0,41.0,-100.00,North,354,4.0,7.0,51,0.00,,,0.00,303.000000,,2013-05-26 01:42:00,
2013-05-25 17:52:00,59.0,41.0,-100.00,North,354,4.0,7.0,51,0.00,,,0.00,303.000000,,2013-05-26 01:52:00,
2013-05-25 18:02:00,59.0,41.0,-100.00,North,354,4.0,7.0,51,0.00,,,0.00,303.000000,,2013-05-26 02:02:00,
2013-05-25 18:11:00,59.0,41.0,-100.00,North,354,4.0,7.0,51,0.00,,,0.00,303.000000,,2013-05-26 02:11:00,
2013-05-25 18:21:00,59.0,41.0,-100.00,North,354,4.0,7.0,51,0.00,,,0.00,303.000000,,2013-05-26 02:21:00,
2013-05-25 18:42:00,59.0,41.0,-100.00,North,351,4.0,9.0,52,0.00,,,0.00,214.000000,,2013-05-26 02:42:00,
2013-05-25 18:52:00,59.0,41.0,-100.00,North,351,4.0,9.0,52,0.00,,,0.00,214.000000,,2013-05-26 02:52:00,
2013-05-25 19:01:00,59.0,41.0,-100.00,North,351,4.0,9.0,52,0.00,,,0.00,214.000000,,2013-05-26 03:01:00,
2013-05-25 19:11:00,59.0,41.0,-100.00,North,351,4.0,9.0,52,0.00,,,0.00,214.000000,,2013-05-26 03:11:00,
2013-05-25 19:21:00,59.0,41.0,-100.00,North,351,4.0,9.0,52,0.00,,,0.00,214.000000,,2013-05-26 03:21:00,
2013-05-25 19:43:00,57.0,43.0,-100.00,North,357,3.0,7.0,60,0.00,,,0.00,121.000000,,2013-05-26 03:43:00,
2013-05-25 19:53:00,57.0,43.0,-100.00,North,357,3.0,7.0,60,0.00,,,0.00,121.000000,,2013-05-26 03:53:00,
2013-05-25 20:02:00,57.0,43.0,-100.00,North,357,3.0,7.0,60,0.00,,,0.00,121.000000,,2013-05-26 04:02:00,
2013-05-25 20:12:00,57.0,43.0,-100.00,North,357,3.0,7.0,60,0.00,,,0.00,121.000000,,2013-05-26 04:12:00,
2013-05-25 20:23:00,57.0,43.0,-100.00,North,357,3.0,7.0,60,0.00,,,0.00,121.000000,,2013-05-26 04:23:00,
2013-05-25 20:42:00,55.0,45.0,-100.00,North,5,1.0,6.0,68,0.00,,,-99.99,52.000000,,2013-05-26 04:42:00,
2013-05-25 20:52:00,55.0,45.0,-100.00,North,5,1.0,6.0,68,0.00,,,-99.99,52.000000,,2013-05-26 04:52:00,
2013-05-25 21:02:00,55.0,45.0,-100.00,North,5,1.0,6.0,68,0.00,,,-99.99,52.000000,,2013-05-26 05:02:00,
2013-05-25 21:12:00,55.0,45.0,-100.00,North,5,1.0,6.0,68,0.00,,,-99.99,52.000000,,2013-05-26 05:12:00,
2013-05-25 21:21:00,55.0,45.0,-100.00,North,5,1.0,6.0,68,0.00,,,-99.99,52.000000,,2013-05-26 05:21:00,
2013-05-25 21:42:00,52.0,45.0,-100.00,SSE,163,0.0,2.0,79,0.00,,,0.00,32.000000,,2013-05-26 05:42:00,
2013-05-25 21:52:00,52.0,45.0,-100.00,SSE,163,0.0,2.0,79,0.00,,,0.00,32.000000,,2013-05-26 05:52:00,
2013-05-25 22:01:00,52.0,45.0,-100.00,SSE,163,0.0,2.0,79,0.00,,,0.00,32.000000,,2013-05-26 06:01:00,
2013-05-25 22:11:00,52.0,45.0,-100.00,SSE,163,0.0,2.0,79,0.00,,,0.00,32.000000,,2013-05-26 06:11:00,
2013-05-25 22:21:00,52.0,45.0,-100.00,SSE,163,0.0,2.0,79,0.00,,,0.00,32.000000,,2013-05-26 06:21:00,
2013-05-25 22:42:00,50.0,46.0,-100.00,SSW,208,0.0,1.0,85,0.00,,,0.00,6.000000,,2013-05-26 06:42:00,
2013-05-25 22:52:00,50.0,46.0,-100.00,SSW,208,0.0,1.0,85,0.00,,,0.00,6.000000,,2013-05-26 06:52:00,
2013-05-25 23:01:00,50.0,46.0,-100.00,SSW,208,0.0,1.0,85,0.00,,,0.00,6.000000,,2013-05-26 07:01:00,
2013-05-25 23:11:00,50.0,46.0,-100.00,SSW,208,0.0,1.0,85,0.00,,,0.00,6.000000,,2013-05-26 07:11:00,
2013-05-25 23:21:00,50.0,46.0,-100.00,SSW,208,0.0,1.0,85,0.00,,,0.00,6.000000,,2013-05-26 07:21:00,
2013-05-25 23:42:00,46.0,44.0,-100.00,SSE,168,0.0,1.0,90,0.00,,,0.00,0.000000,,2013-05-26 07:42:00,
2013-05-25 23:52:00,46.0,44.0,-100.00,SSE,168,0.0,1.0,90,0.00,,,0.00,0.000000,,2013-05-26 07:52:00,